Погода в Медвежьегорске

Погода в Медвежьегорске : погода сейчас, прогноз погоды и архив. Всё, что Вы хотите узнать о погоде в Медвежьегорске!

Хотите узнать прогноз погоды в Медвежьегорске? Тогда Вам сюда: Погода в Медвежьегорске

Поиск расширенной информации на нашем сайте:

Другие новости

Новости СМИ2

Главная страница сайта

Новости сайта

03.07.2017

Напоминаем, что на нашем специализированном сайте Метеоцентр.Азия вы можете получить высокодетализированные автоматические прогнозы погоды по пунктам России, СНГ и мира в авиационном формате (включающие направление и скорость ветра, видимость, явления погоды, количество и форму облачности, нижнюю и верхнюю границу облачности).


Погода в Медвежьегорске - сегодня

Время (UTC), дата Ветер
(°,м/с) 
Видим.   Явления Облачность Т
(°С)
Тd
(°С)
f(%) Тe
(°С)
Pmin
(гПа)
dP
(гПа)
Po
(мм)
O2
(г/м3)
Тmin Tmax R s Состояние
почвы
00 14.02.18 тихо ()   10 км    ясно 
-13.6 -14.2 95 -14  1026.7  0.8  762  324           
03 14.02.18 тихо ()   10 км    ясно 
-13.9 -14.7 94 -14  1027.7  763  325  -14.2         
09 14.02.18 150 (ЮВ) 20000 м    10/10 240 м 
[Frnb]
-12.2 -13.4 91 -12  1030  1.3  764  324           
12 14.02.18 120 (ЮВ) 20000 м    9/0 средняя, верхняя 
[Ac trans|Cc]
-11.8 -13.1 90 -12  1030.4  0.4  765  323           
15 14.02.18 110 (В) 20000 м    5/0 средняя, верхняя 
[Ac lent|Ci fib]
-12.9 -13.9 92 -13  1031.2  0.8  765  325           
18 14.02.18 тихо ()   10 км    ясно 
-14.7 -15.8 91 -15  1032.2  0.9  766  328    -11.7       
21 14.02.18 тихо ()   10 км    6/0 верхняя 
[Cs]
-13.8 -14.8 92 -14  1032.7  0.5  766  327           
00 15.02.18 тихо ()   10 км    5/5 600 м 
[Sc]
-14.8 -15.9 91 -15  1032.9  0.2  766  328           
03 15.02.18 тихо ()   10 км    9/9 800 м 
[Sc]
-14.6 -15.8 91 -15  1033.3  0.3  767  328  -15.9         
03 16.02.18 130 (ЮВ) 10 км  {снег}  10/10 210 м 
[St]
-14 -15.1 91 -14  1030.1  -0.9  764  326  -14    0.2     
03 17.02.18 тихо ()   4000 м  слаб. снег  10/10 360 м 
[Frnb]
-13.7 -14.9 91 -14  1026.3  762  324  -17.2    0.7     
09 17.02.18 110 (В) 4000 м  дымка  10/0 верхняя 
[Cs]
-11 -12.7 87 -11  1026  0.1  761  321           
03 18.02.18 300 (СЗ) 2000 м  слаб. ливневой снег  10/10 210 м кучево-дожд. 
[Cb cap]
-10.9 -11.9 92 -11  1024.3  760  320  -15.8    0.3     
09 18.02.18 тихо ()   10 км  слаб. ливневой снег  9/6 600 м кучево-дожд., верхняя 
[Cb cap|Cs]
-8 -10.1 85 -8  1023.9  0.1  760  316           
03 19.02.18 300 (СЗ) 10 км  {ливн. осадки}  5/5 600 м 
[Sc]
-13.9 -15.1 91 -14  1023.7  -0.2  760  324  -13.9    0.5     
09 19.02.18 310 (СЗ) 10 км  слаб. ливневой снег  10/5 300 м кучево-дожд., средняя 
[Cb cap|Ac As]
-8.5 -10.2 87 -8  1024.3  0.6  760  317           
03 20.02.18 310 (СЗ) 10 км  слаб. ливневой снег  10/10 240 м кучево-дожд. 
[Cb cap]
-9.8 -11.1 90 -12  1024.9  0.2  761  319  -10.9    0.2     
09 21.02.18 300 (СЗ) 20000 м    3/1 1000 м верхняя 
[Sc|Ci fib]
-11 -13.7 80 -13  1024.7  761  321           
21 21.02.18 310 (СЗ) 10 км    9/9 900 м 
[Sc]
-11.6 -13 89 -11  1024.2  -0.2  760  321           
03 22.02.18 290 (З) 10 км  слаб. снег  10/10 240 м 
[Frnb]
-11 -13.2 84 -13  1022.5  -1.4  759  320  -14.1    0.3     
09 22.02.18 300 (СЗ) 20000 м  позёмок{снег}  8/8 660 м 
[Sc]
-11.3 -14.6 77 -14  1023.2  0.6  759  320           
21 22.02.18 290 (З) 10 км  в посл. час снег  8/0 верхняя 
[Ci fib]
-14.5 -16.1 88 -15  1025.6  0.7  761  325           
03 23.02.18 300 (СЗ) 10 км    9/9 1410 м 
[Sc]
-15.9 -17.7 86 -18  1027.3  0.5  762  328  -16.4    0.2     
09 23.02.18 310 (СЗ) 20000 м    10/0 средняя 
[As trans]
-13.4 -16.1 80 -16  1028.8  0.7  763  325           
21 23.02.18 300 (СЗ) 10 км  слаб. снег  8/0 средняя 
[As trans]
-16.2 -18.1 85 -16  1032.9  1.2  766  330           
Время (UTC), дата Ветер
(°,м/с) 
Видим.   Явления Облачность Т
(°С)
Тd
(°С)
f(%) Тe
(°С)
Pmin
(гПа)
dP
(гПа)
Po
(мм)
O2
(г/м3)
Тmin Tmax R s Состояние
почвы

Для получения пояснительной информации подведите курсор к названию столбца.

ПОГОДА в Медвежьегорске - архив

Всё, что Вы хотите узнать о погоде в Медвежьегорске - удобно и подробно!

Выберите нужную дату (начиная с 1 января 2015* года) и нажмите кнопку "Найти".
Будут отображены архивные сводки погоды по пункту Медвежьегорск, начиная с указанной даты.


Отображать данные в формате CSV (для использования в таблицах Excel)


Внимание! Наш архив погоды предназначен исключительно для личного некоммерческого использования в познавательных целях. Если Вам необходимы официальные справки о состоянии погоды (для производственных, юридических, коммерческих и т.п. целей), обращайтесь в органы Росгидромета.

*Примечание: данная дата относится к архиву по метеостанциям СССР (Россия, СНГ, Балтия).
Архив по метеостанциям Зарубежной Европы и Азии (кроме Китая) хранится 10 дней, по другим регионам земного шара (Китай, Африка, Америка, Австралия, Океания) - 1 день.

Медвежьегорск - район местоположения метеостанции


Название, широта, долгота, высота метеостанции:
Медвежьегорск 62.9°ш. 34.4°д. 81 м над ур. моря [Российская Федерация]

Дополнительная информация

В oтличие oт бoльшинства пoгoдных сайтoв мы публикуем пoдрoбную метеoинфoрмацию в детальнoм прoфессиoнальнoм фoрмате.

Характеристики температуры и влажнoсти вoздуха измеряются на высoте 2 м в тени вдали oт зданий и деревьев.
Скoрoсть ветра измеряется на высoте 10 м (на урoвне рoста челoвека скoрoсть ветра ниже в 1.5-2 раза). Если метеoстанция нахoдится в гoрoде или в лесу, тo скoрoсть ветра занижена на 2-4 м/с пo сравнению с oткрытым местoм. Скoрoсть ветра над акватoриями крупных рек и oзёр, а также на вершинах хoлмoв на 2-5 м/с выше, чем в oбычных услoвиях.
Атмoсфернoе давление в разных тoчках местнoсти мoжет значительнo oтличаться oт давления на метеoстанции, в зависимoсти oт услoвий рельефа (при пoдъёме на 10 м давление пoнижается примернo на 1 мм рт.ст.).